Nnamdi Azikiwe International Airport
DNAA : now visible

Aeroporto :











RITROVATECI SU...

 
LOGIN :

Iscrizione | Disclaimer

   EN    FR    IT 

 









Sommario :    VFR   VFR Marginale   IFR   IFR Intensivo   IFR Molto Intensivo
Visibilità : 
Base nubi : 
>= 8 km
>= 3000ft
5 / 8 km
1000 / 3000 ft
1500m / 5 km
500 / 1000 ft
800 / 1500m
200 / 500 ft
< 800m
< 200 ft
Simboli :   Temporali  Nebbia  Neve Forte  Precipitazioni Forti  Vento > 20 kt







- Altitudine del aeroporto : 1123 ft
- Codice IATA : ABV


DNAA - Nnamdi Azikiwe International

ULTIMO METAR :
  • 182300Z 12003KT 9999 SCT008 26/22 Q1015 NOSIG

TAF TAF DNAA
Valido dal 18 a 18 ore il 20 a 00 ore UTC


181540Z 1818/1924 27008KT 9999 SCT012 FEW020CB
TEMPO 1818/1821 TS
TEMPO 1823/1903 08016KT -TSRA BKN008 FEW018CB
BECMG 1903/1905 16005KT
FIR DNKK / Africa



MetMap, La meteo Aeronautica in un colpo d'occhio ! - Copyright ORBIFLY Dicembre 2007 - Disclaimer

ORBIFLY MET'MAP TEAM :

Programmazione e sviluppo : Alexandra Zaïnal
Concezione e sviluppo : Baudouin d'Aumeries
Co-Programmazione e sviluppo : Marc-Olivier Méhu
Supporto tecnico e logistico : Manuel Goepfert
Aiuto per la traduzione : Arnaldo La Scala

Contatto : metmap@orbifly.com




FONTI E CREDITI :

   NOAA       Earth
Advisory